Dewpoint
49 49 49 49 50 50 51 51 52 52 52 52 53 53 55 57 58 57 57 57 57 57 56 55 55 55 54 54 54 55 56 57 54 52 50 48 53 56 58 59 61 61 61 61 60 58 57 56 53 55 54 54 54 50 52 47 46 43 40 38 36 37 37 40 39 39 39 37 39 39 35 32 33 34 37 37 36 40 43 45 48 52 54 55 55 56 57 58
48 48 48 48 49 49 50 51 51 51 51 51 52 53 53 56 57 57 57 57 58 58 56 56 56 55 55 54 55 55 58 54 51 51 50 52 53 53 56 58 59 59 60 59 59 57 56 54 54 56 53 52 52 50 49 48 46 41 39 39 38 38 40 42 40 40 39 39 40 39 37 34 34 35 36 35 35 38 38 40 46 49 50 54 56 57 58 59
49 48 48 48 48 49 50 50 51 51 51 51 52 52 52 53 56 57 57 57 57 58 57 56 56 55 55 54 54 58 53 50 49 47 46 54 57 55 55 56 57 58 58 57 59 59 57 56 56 55 51 51 49 49 48 49 45 43 41 38 39 40 40 42 41 40 40 40 39 37 36 34 34 35 34 35 35 36 36 36 39 45 47 51 55 56 57 58
48 49 49 48 48 48 49 50 50 51 51 51 51 52 52 52 55 56 57 57 57 57 58 58 56 56 57 55 56 56 54 44 33 41 49 55 54 58 57 56 56 57 58 60 59 59 59 58 56 55 51 50 49 47 47 48 45 44 41 40 40 41 40 41 42 41 41 39 38 37 37 38 34 33 34 33 34 34 35 36 36 39 45 53 55 56 56 57
48 48 49 48 49 50 49 49 49 50 50 51 51 51 51 52 53 55 57 57 57 57 57 58 56 55 57 57 57 50 49 26 26 42 46 57 58 57 59 57 57 55 57 60 60 60 60 57 55 52 50 48 47 46 46 46 46 42 42 41 41 42 40 41 42 42 41 40 39 39 38 38 34 33 32 34 32 33 34 35 37 39 44 55 56 56 56 56
48 48 48 49 48 49 49 49 49 50 51 51 51 51 51 52 52 54 56 56 57 57 57 58 57 55 57 58 55 50 36 19 35 45 59 54 56 59 58 58 57 54 58 58 57 57 59 57 55 51 49 48 47 47 47 46 44 42 42 41 41 42 41 41 41 40 40 40 39 39 40 38 33 34 32 33 32 32 35 35 34 36 47 56 56 57 56 55
48 48 49 48 47 48 48 49 49 49 49 50 51 51 51 52 52 53 55 56 57 57 58 57 57 56 55 58 54 52 44 35 45 49 54 55 52 55 58 58 58 55 57 57 58 57 58 56 55 49 47 47 47 47 48 47 47 42 42 41 41 41 41 41 41 40 41 40 40 40 39 39 37 38 35 31 32 32 31 32 34 34 55 57 56 56 56 56
48 48 48 48 48 48 49 49 50 49 49 49 50 51 51 51 51 52 55 56 56 56 57 57 56 57 56 54 51 46 46 43 45 48 52 54 45 48 59 56 55 54 54 53 56 56 57 56 54 50 49 49 45 49 48 47 45 42 42 42 41 41 41 41 40 41 41 41 40 39 40 40 38 38 33 32 32 32 31 40 51 55 56 55 56 56 56 56
50 48 49 48 49 49 49 49 50 50 49 49 50 50 51 51 52 51 54 56 56 56 57 57 57 57 56 53 49 44 42 46 47 47 48 47 45 49 56 54 54 54 52 53 56 56 57 56 55 53 49 49 48 48 47 47 47 45 43 43 43 42 42 41 41 42 42 42 40 40 40 40 39 37 37 37 36 35 36 51 53 54 55 55 56 56 56 56
49 50 48 49 49 49 49 49 49 49 50 49 50 50 51 51 51 51 51 54 56 56 57 57 57 56 54 51 48 40 44 47 47 46 46 46 46 44 44 55 54 53 52 53 55 57 57 55 55 53 51 50 49 49 47 48 46 46 45 43 43 43 46 44 41 42 42 42 40 41 41 41 41 38 38 39 38 40 44 50 52 54 54 55 55 56 57 57
49 48 48 48 49 49 49 48 49 49 50 51 50 49 50 51 50 51 51 53 55 55 56 56 57 56 52 51 44 39 47 46 45 44 45 45 43 43 42 54 55 53 52 52 54 57 58 55 54 54 52 50 50 48 48 48 47 47 47 46 46 46 46 44 43 44 43 43 41 41 41 42 39 38 39 39 40 38 39 47 52 52 53 55 55 56 56 57
50 49 48 48 47 50 50 50 49 49 49 50 51 49 48 49 50 51 51 52 54 55 56 57 56 55 52 50 46 42 48 45 48 47 46 43 42 43 43 53 55 54 53 51 53 57 59 56 55 54 50 52 48 48 47 49 48 45 48 45 44 46 46 45 45 44 43 43 41 42 41 41 37 37 38 40 40 37 37 41 49 52 52 53 55 55 56 57
48 49 49 49 47 50 50 50 50 49 48 49 50 50 49 49 49 50 51 52 53 54 55 56 55 55 51 44 47 49 48 50 49 48 48 49 45 49 49 53 56 55 54 52 53 56 59 57 56 54 52 50 47 46 46 49 47 46 46 45 43 44 45 46 45 44 43 44 41 41 37 39 40 38 38 39 39 38 37 36 42 49 51 52 53 55 56 56
47 48 49 48 48 47 50 50 50 49 49 49 49 49 50 48 49 50 50 51 53 53 54 56 55 54 48 45 50 50 49 49 48 47 46 47 44 46 54 55 56 56 55 53 54 57 59 60 59 56 53 50 46 49 47 46 45 47 44 44 43 39 41 43 46 44 43 44 40 41 38 38 39 40 40 39 38 38 38 37 37 40 45 49 51 54 55 56
47 48 49 47 48 47 48 50 50 49 48 49 49 48 49 49 49 49 50 51 53 53 54 55 54 49 45 47 51 51 53 48 45 46 48 43 45 49 51 56 57 57 55 54 56 56 58 58 56 53 52 52 49 46 43 42 41 44 44 42 40 42 39 41 44 45 44 43 40 40 39 40 40 40 41 40 38 38 38 38 38 37 37 39 44 50 53 55
47 48 48 48 47 47 47 49 49 49 48 47 48 48 49 50 50 49 50 50 51 53 54 52 51 50 44 43 47 54 51 45 44 46 48 46 43 44 49 55 57 58 58 56 56 57 57 56 54 53 51 51 49 45 42 43 42 43 44 40 42 42 40 39 41 44 45 42 41 41 39 37 40 41 41 41 38 37 37 37 37 37 37 37 37 40 46 50
47 48 48 47 48 48 47 48 49 49 48 49 48 48 49 50 51 50 51 50 50 53 52 47 51 51 40 48 51 47 46 47 47 45 46 47 44 46 55 55 55 56 57 57 56 55 54 55 52 51 51 49 48 46 42 40 41 42 44 42 40 41 41 40 39 41 42 43 41 40 40 38 38 38 41 42 38 36 36 37 37 37 37 37 37 37 37 41
47 47 47 47 47 48 47 48 48 49 49 48 49 49 48 48 50 49 50 50 51 50 51 52 51 45 41 47 41 43 46 46 46 45 45 46 46 52 53 52 53 55 55 53 53 51 53 50 50 45 47 47 47 45 41 36 39 39 42 41 42 39 41 41 39 38 42 41 42 40 39 40 41 41 40 39 41 38 36 36 36 37 37 37 37 37 37 37
47 47 47 47 47 48 48 48 48 49 49 49 50 49 50 50 49 48 47 48 43 41 35 39 40 33 31 42 44 44 45 47 46 45 43 43 48 49 50 53 54 51 47 48 48 50 52 49 47 43 41 43 44 44 42 39 42 40 41 42 42 41 40 40 40 40 42 40 41 41 40 40 41 42 42 42 39 39 39 38 37 37 37 37 37 37 37 37
47 47 47 47 47 48 48 47 48 48 49 49 48 47 47 42 41 40 45 45 40 40 38 42 43 40 43 42 44 46 47 47 44 44 44 48 45 45 43 50 50 50 47 43 47 47 50 42 40 38 39 40 43 45 44 41 42 42 42 40 41 41 41 38 40 41 40 39 40 41 41 41 40 41 42 42 42 38 38 37 38 38 37 37 37 37 37 37
47 47 47 47 47 47 48 48 48 48 49 47 46 43 36 38 33 31 39 41 42 43 41 41 44 42 41 44 45 45 43 44 44 42 44 49 48 42 40 46 45 43 45 44 45 50 48 40 40 38 38 38 40 43 45 45 44 42 40 39 40 40 40 40 39 41 40 40 38 39 40 40 40 40 40 41 41 40 40 39 38 38 38 38 38 38 39 39
48 48 47 47 47 47 47 48 48 48 48 48 46 41 41 39 40 43 39 34 38 42 42 42 44 44 46 43 44 46 45 42 41 42 45 46 44 39 41 43 43 40 45 45 44 43 42 39 40 41 38 38 37 42 44 44 43 42 41 41 40 40 39 39 39 40 40 39 39 37 37 38 39 40 41 40 40 40 41 41 40 40 40 39 38 39 39 39
48 48 48 47 47 47 46 47 47 48 46 45 42 42 41 42 45 45 41 36 35 39 40 41 40 41 42 45 44 45 41 40 39 41 43 44 42 40 42 41 42 41 42 44 40 40 37 41 43 43 40 38 37 39 42 43 43 42 41 40 38 40 40 37 39 38 39 40 35 35 38 38 39 39 40 41 41 41 41 41 41 41 40 40 40 39 39 39
48 48 48 48 48 47 47 47 47 47 46 45 43 43 45 46 45 43 40 31 31 35 39 39 40 39 39 41 45 42 40 40 40 40 45 44 40 40 42 40 40 40 39 42 41 39 37 40 44 43 41 39 37 39 41 41 40 41 41 39 38 39 39 39 38 38 38 39 38 37 37 38 38 38 38 38 39 40 40 40 41 41 42 42 42 42 41 39
48 48 48 48 47 47 46 47 46 44 45 45 43 44 46 46 45 42 38 32 33 32 39 39 40 39 40 46 46 42 41 41 40 42 44 44 41 39 40 41 39 37 37 41 42 40 40 41 43 42 42 41 39 39 40 40 38 38 40 40 38 39 39 37 37 38 36 37 38 36 33 33 35 36 37 38 38 38 38 38 38 39 40 41 41 41 42 43
48 48 47 47 47 46 47 42 43 44 43 42 44 45 46 45 43 44 39 27 21 28 38 31 40 35 44 41 43 43 44 38 41 42 44 43 44 40 41 40 38 35 37 39 40 41 38 41 42 41 41 41 40 38 39 40 37 36 36 41 40 40 40 39 37 38 36 34 35 38 35 32 34 34 35 37 38 38 38 38 38 38 38 39 40 40 40 41
48 48 47 47 47 47 43 38 45 44 40 41 44 46 45 44 45 40 31 19 20 31 30 38 35 35 38 40 41 42 32 34 43 44 43 45 42 45 38 39 38 36 37 37 37 35 40 39 39 40 40 40 40 38 38 40 38 35 36 40 41 40 39 39 39 38 37 35 36 37 39 35 33 33 34 36 37 37 38 38 38 38 38 38 39 39 40 41
47 47 46 46 46 46 42 45 43 41 39 43 46 46 45 45 43 39 29 14 10 32 29 37 36 42 40 41 42 37 39 43 36 40 43 44 43 41 39 39 36 34 36 37 28 34 37 36 38 39 40 39 39 39 39 40 38 35 37 41 40 40 40 39 40 38 38 37 35 37 37 33 33 34 35 36 35 36 37 37 38 38 39 39 40 40 40 41
47 47 46 46 46 47 46 41 41 39 41 45 46 45 45 45 42 32 23 12 26 28 43 34 43 40 40 41 39 37 39 41 35 40 42 43 44 43 38 39 38 34 36 36 30 31 34 36 37 38 40 39 39 40 40 41 39 39 39 41 38 39 38 40 39 39 37 34 31 35 38 33 30 31 32 34 34 32 34 37 38 38 39 40 41 41 41 42
47 46 46 45 47 45 44 44 42 41 45 46 45 44 44 43 36 24 16 7 21 20 33 37 30 34 39 37 37 37 35 39 42 42 41 40 40 43 41 41 39 35 36 37 35 31 33 38 38 37 38 40 41 39 41 41 41 39 40 38 35 34 35 35 38 37 34 30 31 35 37 35 30 30 29 31 32 33 33 33 36 38 40 40 41 41 42 42
47 45 45 46 44 44 42 42 44 45 45 44 44 44 42 36 25 19 12 13 21 24 37 33 31 39 36 35 32 36 35 37 40 39 38 38 38 40 40 38 39 37 33 34 35 35 33 38 36 34 37 37 40 38 37 36 40 40 35 36 36 35 33 33 31 33 30 27 32 34 34 36 29 29 30 29 30 31 32 32 32 35 37 38 40 40 41 41
46 46 47 45 45 44 40 40 44 45 45 44 44 40 37 22 25 14 12 25 13 19 27 31 35 36 36 36 35 35 34 36 38 38 35 35 35 36 37 31 37 29 29 31 30 34 33 34 36 37 39 38 38 38 37 37 40 41 36 38 33 30 32 27 31 27 27 27 32 32 33 32 33 31 30 30 31 31 33 33 33 33 35 37 39 39 40 41
46 46 46 46 46 44 44 44 46 45 44 44 42 39 27 18 10 18 19 15 11 26 24 33 33 34 35 33 33 35 35 33 38 37 35 35 34 35 37 34 36 32 26 31 29 29 30 34 36 37 38 38 38 35 35 34 38 39 37 35 32 27 26 24 28 29 28 31 32 32 34 30 31 33 34 34 34 33 33 35 36 35 35 35 37 38 39 40
46 47 44 45 45 45 45 45 45 45 43 43 38 30 24 13 12 22 16 20 14 22 32 32 34 34 33 30 31 34 30 35 36 36 35 33 34 32 35 35 36 33 32 31 27 28 24 26 31 37 33 38 38 35 35 35 37 38 37 36 33 31 25 21 24 22 23 24 26 29 31 27 32 31 35 34 35 36 35 34 36 36 36 36 36 36 37 38
46 46 45 44 45 45 46 46 45 44 41 39 32 26 17 15 16 17 17 16 21 25 26 32 33 32 30 31 32 34 32 31 36 35 34 33 31 31 31 33 35 34 31 29 29 25 25 22 28 35 34 38 37 36 34 35 36 38 36 35 34 31 27 21 18 21 22 21 23 28 29 28 33 35 34 32 32 34 36 35 36 35 36 36 36 36 36 36
45 43 44 43 44 44 46 46 44 45 41 34 28 20 17 19 16 19 18 24 25 21 25 28 32 29 29 29 32 32 34 29 34 34 32 33 32 30 31 33 34 34 30 27 29 24 24 23 24 30 36 38 38 38 35 35 26 34 36 32 33 34 30 24 26 19 23 23 24 30 31 33 31 30 30 30 32 31 32 34 36 36 36 36 36 36 36 37
43 44 40 43 43 45 46 44 45 44 41 34 24 20 23 22 20 22 29 22 25 27 23 18 24 27 25 25 28 31 32 33 33 33 28 34 31 31 31 32 34 34 32 28 28 27 22 21 26 28 31 34 39 39 38 34 33 36 33 34 38 37 32 31 25 23 22 21 20 29 27 27 28 26 29 28 28 29 31 32 32 34 35 35 36 36 36 36
42 41 41 41 42 45 46 45 44 41 37 29 22 26 26 22 26 23 28 26 27 26 24 21 20 30 25 26 26 30 32 29 30 32 29 33 27 34 31 31 34 33 32 30 26 27 25 18 22 28 30 34 36 39 37 38 37 34 32 38 33 27 29 30 25 23 22 21 21 20 22 24 26 25 26 25 26 26 27 31 31 31 32 33 34 35 35 35
41 41 35 39 44 46 45 45 42 39 32 24 24 25 25 23 27 28 28 27 27 26 22 22 20 28 28 26 27 29 31 27 31 30 27 29 26 34 31 32 32 34 33 31 27 25 24 18 17 27 32 35 37 37 31 36 38 34 33 34 31 29 30 29 29 29 24 22 20 21 20 19 23 23 24 23 22 23 26 29 30 31 32 32 33 34 34 35
39 36 32 42 44 46 46 44 39 34 28 23 25 25 26 21 23 29 30 29 24 26 24 22 24 23 28 27 29 28 31 29 28 30 29 32 29 35 31 32 31 33 33 31 26 28 25 21 14 24 31 34 31 35 31 34 34 35 34 33 32 29 27 31 29 28 24 18 18 14 15 16 21 23 23 22 22 22 23 28 30 30 31 32 32 33 34 35
39 34 33 44 44 46 45 41 33 28 28 29 27 23 21 21 26 27 30 31 29 30 27 25 26 24 26 27 27 29 28 29 28 27 29 31 31 29 33 31 33 32 34 32 28 26 21 20 18 28 29 30 31 36 33 32 34 35 34 32 33 30 26 24 22 29 26 24 18 15 17 17 24 28 23 23 23 23 25 26 27 29 30 30 32 33 33 35
35 28 31 44 45 45 39 30 29 31 29 27 25 25 23 35 24 27 27 28 29 29 28 29 28 26 27 28 28 29 29 27 28 27 28 27 32 32 33 33 32 33 31 28 27 28 25 23 19 24 28 30 27 31 32 32 32 34 36 34 34 32 30 27 22 23 23 27 23 22 18 19 27 32 30 26 25 28 30 29 29 30 31 31 32 33 33 35
33 29 39 44 45 42 36 28 31 29 26 28 28 26 29 27 25 27 27 27 26 28 28 26 27 25 25 28 28 28 30 28 29 27 29 29 30 33 31 34 33 33 33 30 30 29 32 15 15 19 29 30 30 30 30 30 32 30 33 34 34 33 32 29 26 25 24 22 25 23 23 23 29 32 35 35 32 30 29 31 31 32 33 33 32 32 32 33
33 33 35 42 45 42 32 24 24 27 28 26 26 25 30 27 27 25 25 28 27 25 28 27 27 28 26 29 29 27 31 25 29 29 28 31 29 32 32 34 34 34 32 30 28 30 24 25 19 15 16 25 27 29 26 25 29 30 30 33 34 33 33 32 30 27 25 25 24 23 20 22 28 32 31 31 30 30 30 29 30 30 30 32 33 33 33 34
33 35 31 34 43 39 29 29 26 26 26 25 27 25 25 28 27 29 27 27 29 27 27 27 28 29 26 27 27 30 31 29 27 31 30 30 29 30 32 34 35 33 34 34 33 31 26 24 20 18 15 15 15 17 19 25 30 31 29 31 33 33 32 33 29 30 26 28 28 23 24 27 29 29 28 28 27 27 28 30 30 31 31 31 32 33 33 34
31 26 29 30 33 35 33 32 28 25 25 23 22 25 26 22 28 29 27 26 30 30 29 30 29 30 27 27 24 25 28 31 29 28 30 28 28 26 31 35 35 34 35 36 37 33 24 26 23 20 18 15 16 18 21 27 30 28 29 29 29 32 33 32 29 28 26 29 28 28 27 27 27 27 27 27 27 26 26 26 28 30 31 32 32 32 32 32
32 24 23 24 30 31 31 31 25 24 23 26 22 25 25 26 25 27 28 22 28 29 27 29 28 26 24 27 26 25 27 28 29 27 27 29 30 27 32 34 35 35 37 37 38 32 27 25 25 24 21 20 19 19 27 28 27 28 29 29 29 29 31 31 29 26 28 27 25 27 28 27 27 27 27 27 26 26 26 26 26 27 30 30 30 29 33 31
28 27 23 23 26 25 28 28 31 28 26 26 23 25 23 24 26 23 27 29 29 30 27 25 28 29 27 28 27 25 26 27 28 26 28 29 29 25 31 33 34 36 37 36 38 33 29 25 26 26 24 23 22 22 26 27 27 27 28 29 29 29 29 29 29 29 28 25 23 25 26 25 24 25 25 25 25 24 24 25 26 28 29 29 29 30 31 31
31 31 31 31 26 27 30 30 31 29 27 27 26 25 19 21 24 26 26 28 29 29 29 24 26 29 29 29 28 26 27 25 25 28 27 27 29 27 27 31 34 34 36 34 35 30 30 27 27 27 26 25 24 24 25 26 25 26 28 29 29 29 30 30 30 30 29 27 27 25 25 25 24 24 25 25 26 27 28 29 31 33 34 33 31 32 32 32
26 26 26 31 30 29 31 31 30 29 27 29 26 25 24 24 23 24 27 29 27 28 29 27 26 28 29 29 29 27 27 28 27 26 28 27 27 28 26 29 32 34 35 32 33 30 31 28 29 27 26 25 26 25 24 25 25 24 25 27 29 30 30 31 30 31 31 30 29 28 27 27 28 28 27 28 29 33 34 34 34 34 34 35 35 36 36 36
31 33 32 27 25 28 31 31 30 28 27 27 26 26 25 25 25 26 26 29 27 26 29 28 28 27 29 29 29 29 29 29 29 29 29 29 26 28 26 27 32 32 33 32 33 29 31 24 27 25 24 23 25 25 24 23 24 21 21 24 26 28 28 30 30 31 30 29 30 30 29 29 29 30 31 31 32 32 32 32 33 33 33 34 33 34 35 36
34 35 33 30 25 28 29 31 31 29 24 26 27 26 26 26 26 27 25 28 29 29 29 29 29 28 27 30 29 30 30 30 29 30 31 30 29 32 30 29 33 32 32 32 33 30 30 28 23 23 24 23 24 26 24 23 21 22 23 24 26 28 29 30 31 32 32 31 30 29 29 30 30 31 31 31 32 32 33 33 33 34 34 33 33 33 33 34